{"data":{"norad_id":64682,"intl_designator":"2025-139U","name":"STARLINK-34551","alt_names":[],"object_type":"PAYLOAD","status":"ACTIVE","operator":null,"country":"US","launch_date":"2025-06-28","launch_site_code":"AFETR","launch_vehicle":null,"mission":null,"orbit_class":"UNKNOWN","rcs_meters":null,"size_class":null,"mass_kg":null,"dimensions":null,"purposes":["comms"],"wikipedia_slug":null,"has_3d_model":false,"image_url":null,"decayed_at":null,"tle_current":{"epoch":"2026-09-20T08:37:03.758592Z","epoch_age_seconds":143375,"freshness":"FRESH","line1":"1 64682U 25139U   26263.35907128  .00019970  00000+0  60050-3 0  9999","line2":"2 64682  53.1572 290.4183 0001089 104.3976 255.7148 15.34405589 70267","mean_motion":15.34405589,"eccentricity":0.0001089,"inclination_deg":53.1572,"raan_deg":290.4183,"arg_perigee_deg":104.3976,"mean_anomaly_deg":255.7148,"bstar":0.0006005,"rev_number":7026,"period_min":93.847416245301,"perigee_km":461.94166287855,"apogee_km":463.43159426485,"semimajor_km":6840.8236285717,"source":"CELESTRAK","updated_at":"2026-09-21T09:00:35.400641Z"}}}